[[{"header":{"parameterUnit":"m.s-1","parameterCategory":1,"la1":30.2991,"la2":30.254,"lo1":-89.0895,"lo2":-89.0444,"dy":0.0017,"dx":0.0017,"nx":28,"ny":28,"refTime":"2024-06-02T03:00:00:Z","depth":0,"parameterNumber":2,"parameterNumberName":"U-component_of_WINDS"},"data":[0,0,0,0,0,0,0,0,0,0,0,0,0,0,0,0,0,0,0,0,0,0,0,0,0,0,0,0,0,0,0,0,0,0,0,0,0,0,0,0,0,0,0,0,0,0,0,0,0,0,0,0,0,0,0,0,0,0,0.5927,0.5926,0,0.5911,0.5911,0.5911,0.5907,0.5907,0.5907,0.5907,0.5891,0.589,0.589,0,0,0,0,0,0,0,0,0,0,0,0,0,0.5951,0.595,0.5927,0.5926,0.5926,0.5911,0.5911,0.5911,0.5907,0.5907,0.5907,0.5907,0.5891,0.589,0.589,0,0,0,0,0,0,0,0,0,0,0,0,0,0.5938,0.595,0.5927,0.5922,0.5922,0.5911,0.5911,0.5911,0.5907,0.5907,0.5907,0.5907,0.5891,0.589,0.589,0.5882,0,0,0.5887,0.5887,0,0,0,0,0,0,0,0,0.5939,0.5937,0.5923,0.5923,0.5922,0.5911,0.5913,0.5901,0.5907,0.5913,0.5907,0.5907,0.5897,0.5896,0.5893,0.5881,0.588,0.5887,0.5887,0.5886,0.5886,0,0,0,0,0,0,0,0.594,0.5938,0.592,0.5923,0.5922,0.5921,0.5919,0.5911,0.5904,0.5912,0.5912,0.591,0.5897,0.5894,0.5892,0.588,0.5887,0.5886,0.5886,0.5886,0.5859,0.5859,0,0,0,0,0,0,0.5942,0.5939,0.5921,0.592,0.5931,0.592,0.5918,0.5914,0.5904,0.5903,0.591,0.591,0.5895,0.5893,0.5892,0.5881,0.5886,0.5885,0.5885,0.5859,0.5859,0.5858,0,0,0,0,0,0,0.5942,0.594,0.5922,0.5929,0.5927,0.592,0.5915,0.5914,0.5911,0.5903,0.5901,0.5908,0.5895,0.5893,0.5884,0.588,0.5885,0.5884,0.5859,0.5859,0.5859,0.5859,0,0,0,0,0,0,0.5943,0.594,0.5938,0.5929,0.5926,0.5914,0.5915,0.5914,0.5909,0.5909,0.59,0.5899,0.5895,0.5885,0.5883,0.5879,0.5884,0.586,0.5859,0.5859,0.5859,0.5859,0.5858,0,0,0,0,0,0.5944,0.5939,0.5938,0.5936,0.5923,0.5914,0.5913,0.5908,0.5909,0.5906,0.5901,0.5899,0.5881,0.5884,0.5882,0.5878,0.586,0.5859,0.5859,0.586,0.5859,0.5858,0,0,0,0,0,0,0.5947,0.5938,0.5936,0.5929,0.5922,0.5914,0.591,0.5908,0.5901,0.5901,0.5896,0.5894,0.5885,0.588,0.5884,0.5868,0.587,0.5869,0.5872,0.5871,0.587,0.5871,0.5883,0,0,0,0,0,0.5947,0.5941,0.5933,0.5927,0.5924,0.5917,0.5913,0.591,0.5903,0.5901,0.5895,0.5888,0.588,0.5875,0.5868,0.5859,0.5856,0.5854,0.5854,0.5854,0.5853,0.5846,0.5844,0.5857,0.5857,0.5857,0,0,0.5947,0.5941,0.5937,0.5927,0.5922,0.5915,0.5915,0.5908,0.5903,0.59,0.589,0.5886,0.5877,0.5868,0.5863,0.5864,0.5848,0.5853,0.5853,0.5852,0.5845,0.5844,0.5843,0.5856,0.5856,0.5856,0,0,0.5942,0.5938,0.5931,0.5926,0.5918,0.5913,0.5912,0.5903,0.59,0.589,0.5887,0.5881,0.5868,0.5862,0.5857,0.5849,0.5846,0.5846,0.5844,0.5837,0.5836,0.5835,0.5831,0.5829,0.5846,0.5846,0.5846,0,0.5943,0.5933,0.5928,0.5921,0.5916,0.5913,0.5906,0.59,0.589,0.5887,0.5888,0.5871,0.5865,0.5853,0.5851,0.5847,0.5844,0.5847,0.5836,0.5835,0.5834,0.583,0.5829,0.5846,0.5846,0.5846,0.5846,0,0.5933,0.5926,0.5922,0.5912,0.5907,0.59,0.5893,0.5888,0.5885,0.588,0.587,0.5863,0.5853,0.585,0.5848,0.5837,0.5838,0.5838,0.5839,0.5833,0.5829,0.5828,0.5846,0.5846,0.5846,0.5846,0,0,0.5932,0.5918,0.5917,0.5911,0.5901,0.5896,0.5888,0.5878,0.5873,0.5866,0.5859,0.5847,0.5847,0.5841,0.5838,0.5832,0.5824,0.5832,0.5832,0.583,0.581,0.581,0.5808,0.5822,0.5822,0.5822,0.581,0,0.5925,0.5912,0.5906,0.5895,0.5887,0.5883,0.5876,0.5869,0.5864,0.5856,0.585,0.5842,0.5842,0.5838,0.5833,0.5826,0.5819,0.5827,0.5814,0.5814,0.5816,0.5806,0.5806,0.5796,0.5809,0.5809,0.5808,0,0.5917,0.5909,0.5896,0.5886,0.5882,0.5876,0.5866,0.586,0.585,0.5847,0.584,0.5836,0.5827,0.5829,0.5815,0.582,0.5814,0.581,0.5809,0.5808,0.581,0.5803,0.5792,0.579,0.5806,0.5806,0.5806,0,0.5915,0.5902,0.5892,0.5888,0.5876,0.5871,0.5866,0.5857,0.5851,0.5842,0.5838,0.5828,0.5822,0.5814,0.5808,0.581,0.5793,0.5796,0.5789,0.5789,0.5786,0.5786,0.5773,0.5784,0.5784,0.5784,0.5784,0,0.5909,0.5901,0.5891,0.5885,0.5876,0.5869,0.586,0.5854,0.5846,0.5838,0.5834,0.5826,0.5818,0.5809,0.5804,0.5792,0.579,0.5786,0.5785,0.5786,0.5786,0.5782,0.5782,0.5783,0.5783,0.5783,0.5783,0,0.5906,0.5899,0.5888,0.5877,0.5874,0.5867,0.5857,0.5851,0.5845,0.5835,0.5832,0.5822,0.5811,0.5804,0.579,0.5786,0.5773,0.5772,0.5776,0.5775,0.5769,0.5769,0.5752,0.5749,0.5762,0.5762,0.5762,0,0.5902,0.5896,0.5883,0.5878,0.5872,0.5863,0.5857,0.585,0.5843,0.5832,0.5826,0.5815,0.5805,0.5788,0.5779,0.5768,0.5766,0.5761,0.5764,0.5765,0.5765,0.5765,0.5763,0.576,0.576,0.576,0.576,0,0.5895,0.5892,0.5883,0.5872,0.5865,0.5856,0.5848,0.5843,0.5834,0.5827,0.5815,0.5808,0.5793,0.5781,0.5769,0.5763,0.5759,0.5759,0.5756,0.5758,0.576,0.5757,0.5774,0.5759,0.5759,0.5759,0.5759,0.5759,0.5891,0.5885,0.5875,0.5864,0.5857,0.5848,0.5841,0.5834,0.5824,0.5812,0.5808,0.5796,0.5785,0.5768,0.5761,0.575,0.5751,0.5748,0.5747,0.5746,0.5745,0.5762,0.5748,0.5748,0.5748,0.5748,0.5748,0,0.5883,0.5876,0.5867,0.5854,0.5846,0.5844,0.5833,0.5826,0.5815,0.5806,0.5796,0.5782,0.577,0.576,0.5747,0.5741,0.5739,0.5737,0.5738,0.5736,0.5746,0.5749,0.5739,0.5739,0.5739,0.5739,0.5739,0.5739,0.5878,0.5867,0.5862,0.5846,0.5839,0.5827,0.5821,0.5812,0.5804,0.5789,0.5779,0.5772,0.5762,0.5748,0.5736,0.5733,0.5728,0.5727,0.5724,0.5734,0.5735,0.5736,0.5739,0.5727,0.5727,0.5714,0.5714,0.5714]},{"header":{"parameterUnit":"m.s-1","parameterCategory":1,"la1":30.2991,"la2":30.254,"lo1":-89.0895,"lo2":-89.0444,"dy":0.0017,"dx":0.0017,"nx":28,"ny":28,"refTime":"2024-06-02T03:00:00:Z","depth":0,"parameterNumber":3,"parameterNumberName":"V-component_of_WINDS"},"data":[0,0,0,0,0,0,0,0,0,0,0,0,0,0,0,0,0,0,0,0,0,0,0,0,0,0,0,0,0,0,0,0,0,0,0,0,0,0,0,0,0,0,0,0,0,0,0,0,0,0,0,0,0,0,0,0,0,0,3.8695,3.8697,0,3.8811,3.8812,3.8814,3.8807,3.8806,3.8804,3.8802,3.8917,3.8922,3.8926,0,0,0,0,0,0,0,0,0,0,0,0,0,3.8464,3.8469,3.8695,3.8697,3.8698,3.8811,3.8812,3.8814,3.8808,3.8806,3.8804,3.8802,3.8916,3.8921,3.8927,0,0,0,0,0,0,0,0,0,0,0,0,0,3.8571,3.847,3.8695,3.8709,3.8711,3.881,3.8812,3.8814,3.8808,3.8806,3.8803,3.8801,3.8914,3.8921,3.8927,3.902,0,0,3.8949,3.8952,0,0,0,0,0,0,0,0,3.8565,3.8579,3.8705,3.8708,3.8711,3.8792,3.8773,3.8883,3.8809,3.8771,3.8802,3.88,3.8877,3.8887,3.8914,3.9025,3.903,3.8949,3.8953,3.8956,3.8958,0,0,0,0,0,0,0,3.8557,3.8574,3.8741,3.8707,3.871,3.8707,3.872,3.8794,3.8837,3.8774,3.8774,3.8788,3.8878,3.8908,3.8917,3.9032,3.8949,3.8955,3.8959,3.8962,3.9222,3.9224,0,0,0,0,0,0,3.8547,3.8568,3.8737,3.8744,3.863,3.8714,3.8727,3.8768,3.8836,3.8844,3.879,3.8787,3.8897,3.8909,3.8921,3.9032,3.8956,3.8963,3.8967,3.9219,3.9222,3.9225,0,0,0,0,0,0,3.8542,3.8563,3.8732,3.8656,3.8678,3.872,3.8766,3.8772,3.8801,3.8848,3.8855,3.8812,3.8895,3.8911,3.8995,3.9036,3.8966,3.8972,3.9216,3.922,3.9224,3.9255,0,0,0,0,0,0,3.8536,3.8561,3.8598,3.8657,3.8682,3.8806,3.8769,3.8776,3.8814,3.8811,3.8871,3.8878,3.8895,3.8985,3.9002,3.9044,3.8977,3.9212,3.9218,3.9223,3.9251,3.926,3.9268,0,0,0,0,0,3.8528,3.8601,3.8599,3.862,3.8729,3.8809,3.8822,3.8841,3.8817,3.8853,3.8883,3.8876,3.9029,3.8993,3.9013,3.9057,3.921,3.9216,3.9222,3.9247,3.9258,3.9268,0,0,0,0,0,0,3.8544,3.8609,3.8608,3.8704,3.8751,3.8807,3.8854,3.8853,3.8907,3.8902,3.8922,3.8936,3.9019,3.9047,3.9006,3.9149,3.9116,3.9126,3.9128,3.9139,3.9148,3.9139,3.8983,0,0,0,0,0,3.8559,3.862,3.8673,3.8752,3.8776,3.8811,3.8846,3.8857,3.8906,3.8926,3.8961,3.9008,3.9067,3.9105,3.9161,3.9255,3.9267,3.9295,3.9304,3.9311,3.9319,3.9369,3.9381,3.9246,3.9246,3.9246,0,0,3.8591,3.8634,3.8671,3.8757,3.8794,3.8855,3.8828,3.8894,3.8938,3.8935,3.9016,3.9044,3.9098,3.9187,3.9228,3.9212,3.9359,3.9318,3.9324,3.9328,3.9376,3.9389,3.9401,3.925,3.9249,3.9249,0,0,3.8678,3.8718,3.8787,3.8826,3.8883,3.8906,3.8923,3.898,3.8998,3.908,3.9079,3.9132,3.9232,3.927,3.9302,3.9403,3.9398,3.9421,3.9465,3.9514,3.9524,3.9534,3.9568,3.9581,3.9429,3.9429,3.9429,0,3.8709,3.8803,3.8823,3.8889,3.8926,3.8927,3.8996,3.9032,3.9105,3.9129,3.9112,3.9237,3.9273,3.937,3.9395,3.9421,3.9439,3.9414,3.9521,3.9531,3.954,3.9573,3.9586,3.9432,3.9431,3.9431,3.9431,0,3.8837,3.8901,3.895,3.9021,3.9064,3.9131,3.916,3.92,3.9207,3.9231,3.9313,3.9357,3.9421,3.9445,3.9452,3.9543,3.9531,3.9517,3.9484,3.9555,3.9586,3.9599,3.9435,3.9434,3.9433,3.9433,0,0,3.8938,3.9019,3.9037,3.9068,3.9132,3.9181,3.9248,3.9312,3.9345,3.9395,3.945,3.9535,3.9522,3.9559,3.957,3.9613,3.9688,3.9593,3.9595,3.9608,3.9788,3.9797,3.9812,3.9685,3.9688,3.969,3.9783,0,3.9031,3.9151,3.917,3.9274,3.9333,3.9334,3.9392,3.9436,3.946,3.9512,3.9538,3.9597,3.9577,3.9598,3.9641,3.967,3.9724,3.9663,3.9735,3.9737,3.972,3.9828,3.9839,3.9925,3.9796,3.9798,3.9799,0,3.9156,3.9209,3.9319,3.9374,3.9399,3.9451,3.951,3.9561,3.961,3.9624,3.9665,3.9671,3.9738,3.9703,3.9795,3.9753,3.9784,3.9802,3.9806,3.9812,3.9772,3.9836,3.9953,3.9965,3.9819,3.9818,3.9816,0,3.9216,3.9316,3.9395,3.9422,3.9488,3.9523,3.9552,3.96,3.9636,3.9688,3.9712,3.977,3.9802,3.9846,3.9867,3.984,3.9957,3.9924,3.997,3.9969,3.9993,3.9991,4.0115,4.0015,4.0015,4.0015,4.0015,0,3.9317,3.9384,3.9423,3.9471,3.9545,3.9566,3.9639,3.9666,3.9708,3.976,3.9765,3.9814,3.9839,3.9891,3.9908,3.998,3.9995,4.0007,4.0011,4.0006,4.0004,4.0025,4.0019,4.0018,4.0018,4.0017,4.0016,0,3.9397,3.9426,3.9511,3.9566,3.9582,3.9634,3.968,3.9726,3.975,3.9816,3.9832,3.9869,3.993,3.9956,4.0031,4.0042,4.0125,4.0125,4.0109,4.0109,4.0153,4.0148,4.0293,4.0313,4.0202,4.0203,4.0204,0,3.9459,3.9511,3.9571,3.9607,3.9637,3.9695,3.9732,3.9755,3.9793,3.9853,3.9891,3.9953,4.0003,4.0101,4.0133,4.0191,4.0191,4.0238,4.0199,4.0193,4.0189,4.0186,4.019,4.0244,4.0245,4.0246,4.0247,0,3.9565,3.9577,3.9631,3.9691,3.9735,3.9783,3.9829,3.9858,3.9887,3.993,3.9994,4.0033,4.011,4.017,4.0229,4.0257,4.0256,4.0259,4.0272,4.0267,4.0255,4.0261,4.0126,4.0255,4.0254,4.0254,4.0253,4.0253,3.9637,3.9682,3.9732,3.9792,3.9829,3.9872,3.9918,3.9947,4.0,4.0065,4.0075,4.0142,4.0189,4.0268,4.0299,4.035,4.0338,4.0358,4.0363,4.0367,4.0369,4.0248,4.0361,4.0361,4.0361,4.0361,4.0361,0,3.9742,3.9774,3.9829,3.9894,3.9941,3.9937,3.9988,4.0027,4.0086,4.0131,4.018,4.0252,4.0311,4.0348,4.0406,4.0441,4.0442,4.0455,4.0452,4.0458,4.0377,4.0359,4.0453,4.0453,4.0453,4.0453,4.0453,4.0453,3.9802,3.9878,3.9895,3.9988,4.0019,4.0086,4.0115,4.0154,4.0189,4.027,4.0318,4.0343,4.0384,4.0445,4.0498,4.0507,4.0528,4.0542,4.055,4.0474,4.0464,4.0455,4.0438,4.0547,4.0547,4.0627,4.0628,4.0628]}]]